Weather Roundup
Issued by NWS Springfield, MO

Home | Current Version | Previous Version | Text Only | Print | Product List | Glossary On
Versions: 1 2 3 4 5 6 7 8 9 10 11 12 13 14 15 16 17 18 19 20 21 22 23 24 25 26 27 28 29 30 31 32 33 34 35 36 37 38 39 40 41 42 43 44 45 46 47 48 49 50
000
NZUS99 KSGF 242257
HRRSGF

HOURLY WEATHER
NATIONAL WEATHER SERVICE SPRINGFIELD MO
600 PM CDT MON APR 24 2017

......SGF CWA......

CITY           SKY/WX    TMP DP  RH WIND       PRES   REMARKS
SPRINGFIELD    SUNNY     74  34  23 SE17      29.67F
JOPLIN         SUNNY     75  38  26 S10       29.64F
WEST PLAINS    SUNNY     74  35  24 SE8       29.76F
ROLLA          SUNNY     75  34  22 S9        29.70F
BRANSON        MOSUNNY   75  39  27 SE10G17   29.71F

......SURROUNDING SGF CWA......

CITY           SKY/WX    TMP DP  RH WIND       PRES   REMARKS
CHANUTE        SUNNY     73  46  38 S23G31    29.61F
PARSONS        SUNNY     73  44  35 S17G26    29.63F
COFFEYVILLE    SUNNY     73  46  38 S13G29    29.63F
EMPORIA        CLOUDY    73  46  38 S18G35    29.58F
HARRISON AR    SUNNY     75  30  19 S15       29.71F

......KANSAS AND MISSOURI......

CITY           SKY/WX    TMP DP  RH WIND       PRES   REMARKS
KANSAS CTY INT MOSUNNY   73  41  31 S16G29    29.60F
SEDALIA        CLOUDY    77  31  18 S13       29.66F
ST JOSEPH      SUNNY     75  39  27 S21G29    29.59S
ST LOUIS       PTSUNNY   75  34  22 SE6       29.75F
WICHITA        CLOUDY    72  52  49 S18       29.57R
TOPEKA         SUNNY     73  44  35 S16G30    29.58F
OLATHE         SUNNY     72  39  30 S15G29    29.62S

......TENNESSEE......

CITY           SKY/WX    TMP DP  RH WIND       PRES   REMARKS
MEMPHIS        NOT AVBL
NASHVILLE      CLOUDY    68  55  63 NE5       29.78F

......ARKANSAS.......

CITY           SKY/WX    TMP DP  RH WIND       PRES   REMARKS
FAYETTEVILLE   SUNNY     72  41  32 S15G24    29.70F
FT SMITH       SUNNY     79  35  20 SE12      29.68F
LITTLE ROCK    MOSUNNY   74  42  31 SE6       29.76F

......OKLAHOMA.......

CITY           SKY/WX    TMP DP  RH WIND       PRES   REMARKS
TULSA          MOSUNNY   75  44  33 S21       29.61F
PONCA CITY     CLOUDY    76  46  34 S10G22    29.58F
MCALESTER      SUNNY     75  46  35 S13G23    29.68F
OKLAHOMA CITY  PTSUNNY   73  49  42 S23G31    29.60F

......IOWA............

CITY           SKY/WX    TMP DP  RH WIND       PRES   REMARKS
DES MOINES     NOT AVBL
QUAD CITIES    SUNNY     75  27  17 SE21G32   29.68F

......ILLINOIS........

CITY           SKY/WX    TMP DP  RH WIND       PRES   REMARKS
QUINCY         NOT AVBL
CHICAGO        CLOUDY    70  29  21 E10       29.81F




USA.gov is the U.S. government's official web portal to all federal, state and local government web resources and services.